Notices

What's New in latest Release from April 7th, 2021:

- Updated Glossary, including Speed of Maximum Gust, and Total Hourly Precipitation

- Updated national and regional climate services offices contacts and prices information

- Addition of station inventory lists for 1981-2010, 1971-2000, and 1961-1990 Normals.

If you haven't already, please take our survey and provide feedback about our website: https://eccc.sondage-survey.ca/f/LanguageSelection.aspx?s=442ca660-fcf1-47c0-95a9-59707d6fd709

Hourly Data Report for May 08, 2021

CARBERRY CS
MANITOBA
Current Station Operator: ECCC - MSC

49°54'20.900" N
99°21'26.800" W
383.50 m
5010547
71170
WZE

Download Data

Hourly Data (May 2021)
Hourly Data Report for May 8, 2021
TIME
LST
Temp Definition
°C
Dew Point Definition
°C
Rel Hum Definition
%
Precip. Amount Definition
mm

Wind Dir Definition
10's deg

Wind Spd Definition
km/h
Visibility Definition
km
Stn Press Definition
kPa
Hmdx Definition


Wind Chill Definition


Weather Definition


00:00 1.9 -8.9 44 0.0 4 9   97.61     LegendNANA
01:00 1.6 -5.6 59 0.0 6 10   97.62     LegendNANA
02:00 0.0 -5.1 69 0.0 5 12   97.62   -4 LegendNANA
03:00 -0.9 -5.0 73 0.0 2 8   97.62   -4 LegendNANA
04:00 -1.6 -6.3 70 0.0 1 9   97.64   -5 LegendNANA
05:00 -1.3 -5.5 73 0.0 2 10   97.61   -5 LegendNANA
06:00 -0.9 -5.3 72 0.0 3 13   97.60   -5 LegendNANA
07:00 2.7 -2.6 68 0.0 4 18   97.61     LegendNANA
08:00 4.8 -1.6 63 0.0 5 18   97.61     LegendNANA
09:00 6.4 -3.0 51 0.0 5 17   97.61     LegendNANA
10:00 8.3 -5.4 38 0.0 6 20   97.64     LegendNANA
11:00 8.7 -7.2 32 0.0 5 19   97.62     LegendNANA
12:00 9.8 -10.2 23 0.0 5 23   97.57     LegendNANA
13:00 10.9 -7.7 26 0.0 6 26   97.51     LegendNANA
14:00 11.2 -11.1 20 0.0 5 25   97.49     LegendNANA
15:00 11.3 -11.3 19 0.0 5 22   97.50     LegendNANA
16:00 12.0 -9.0 22 0.0 6 18   97.47     LegendNANA
17:00 11.3 -10.9 20 0.0 4 20   97.48     LegendNANA
18:00 10.9 -10.0 22 0.0 5 18   97.49     LegendNANA
19:00 10.1 -8.5 26 0.0 4 18   97.53     LegendNANA
20:00 8.1 -8.7 29 0.0 3 13   97.57     LegendNANA
21:00 6.6 -8.7 33 0.0 2 18   97.63     LegendNANA
22:00 5.1 -8.6 36 0.0 2 16   97.67     LegendNANA
23:00 3.9 -7.1 45 0.0 4 15   97.69     LegendNANA

Notes on Data Quality.

Legend

  • E = Estimated
  • M = Missing
  • NA = Not Available*
  • [empty] = Indicates an unobserved value
Date modified: